This demonstration page uses our WeatherBlox Daily Observations layout. Learn more.

Left ArrowRight Arrow

39.08367, -84.50855

Hourly Observations for November 13, 2022

Temp ( °F °C ) Dew Point ( °F °C ) Humidity (%) Winds ( mph kmh ) Pressure ( in mb ) Visibility ( mi km ) Precip ( " mm )
12:15 am 00:15 Cloudy 34 1.1 30 -1.1 85 85 W 8 13 30.18 1022 8 13 0.00 0.00
12:53 am 00:53 Cloudy 34 1.1 30 -1.1 85 85 W 10 17 30.16 1022 9 14 0.00 0.00
1:53 am 01:53 Cloudy 34 1.1 29 -1.7 82 82 W 8 13 30.17 1022 9 14 0.00 0.00
2:53 am 02:53 Cloudy 34 1.1 28 -2.2 79 79 W 13 20 30.20 1023 10 16 0.00 0.00
3:53 am 03:53 Cloudy 34 1.1 27 -2.8 75 75 W 13 20 30.20 1023 10 16 0.00 0.00
4:53 am 04:53 Cloudy 33 0.6 26 -3.3 75 75 W 7 11 30.23 1024 10 16 0.00 0.00
5:42 am 05:42 Cloudy 33 0.6 27 -2.8 78 78 W 8 13 30.27 1025 10 16 0.00 0.00
5:53 am 05:53 Cloudy 33 0.6 26 -3.3 75 75 WNW 9 15 30.25 1024 10 16 0.00 0.00
6:53 am 06:53 Cloudy 32 0 26 -3.3 78 78 W 10 17 30.27 1025 8 13 0.00 0.00
7:20 am 07:20 Cloudy 33 0.6 26 -3.3 75 75 W 8 13 30.30 1026 8 13 0.00 0.00
7:27 am 07:27 Cloudy 33 0.6 26 -3.3 75 75 W 7 11 30.30 1026 8 13 0.00 0.00
7:53 am 07:53 Cloudy 33 0.6 26 -3.3 75 75 W 10 17 30.29 1026 7 11 0.00 0.00
8:53 am 08:53 Cloudy 33 0.6 27 -2.8 78 78 W 9 15 30.32 1027 7 11 0.00 0.00
9:53 am 09:53 Cloudy 35 1.7 28 -2.2 75 75 W 9 15 30.32 1027 8 13 0.00 0.00
10:53 am 10:53 Cloudy 36 2.2 28 -2.2 73 73 W 8 13 30.33 1027 7 11 0.00 0.00
11:53 am 11:53 Cloudy 37 2.8 26 -3.3 64 64 W 8 13 30.33 1027 9 14 0.00 0.00
12:53 pm 12:53 Cloudy 37 2.8 26 -3.3 64 64 W 9 15 30.32 1027 10 16 0.00 0.00
1:53 pm 13:53 Cloudy 38 3.3 26 -3.3 62 62 W 7 11 30.31 1026 10 16 0.00 0.00
2:53 pm 14:53 Cloudy 38 3.3 26 -3.3 62 62 W 8 13 30.32 1027 10 16 0.00 0.00
3:53 pm 15:53 Cloudy 38 3.3 25 -3.9 59 59 W 3 6 30.33 1027 10 16 0.00 0.00
4:53 pm 16:53 Cloudy 38 3.3 24 -4.4 57 57 NNW 5 7 30.33 1027 10 16 0.00 0.00
5:53 pm 17:53 Cloudy 38 3.3 26 -3.3 62 62 NW 5 7 30.34 1027 10 16 0.00 0.00
6:53 pm 18:53 Cloudy 37 2.8 27 -2.8 67 67 Calm 30.35 1028 10 16 0.00 0.00
7:53 pm 19:53 Cloudy 37 2.8 27 -2.8 67 67 Calm 30.35 1028 10 16 0.00 0.00
8:53 pm 20:53 Cloudy 36 2.2 28 -2.2 73 73 Calm 30.36 1028 10 16 0.00 0.00
9:53 pm 21:53 Cloudy 36 2.2 30 -1.1 79 79 S 3 6 30.35 1028 10 16 0.00 0.00
10:53 pm 22:53 Cloudy 36 2.2 29 -1.7 75 75 S 3 6 30.35 1028 10 16 0.00 0.00
11:53 pm 23:53 Cloudy 36 2.2 30 -1.1 79 79 Calm 30.35 1028 10 16 0.00 0.00

Powered by AerisWeather